GEESAT-6 07

Last updated on Sat Oct 25 2025 00:02:05 GMT+0000 (Coordinated Universal Time)

1 65719U 25214H 25297.67796791 .00004034 00000+0 47470-3 0 9994 2 65719 49.9805 320.4603 0012584 59.8090 300.4094 14.86651730 4548

Satellite not in orbit

GEESAT-6 07